This is the latest recevied weather packets stored in our database for station/object PY2VE-13. If no packets are shown the sender has not sent any weather packets the latest 10 day(s).
| Time | Temp. | Humidity | Pressure | Rain* | Wind** | Luminosity | Snow |
|---|---|---|---|---|---|---|---|
| 1777958332 | 25° C | 53% | 1024.3 hPa | - | - | - | - |
| 1777957432 | 25° C | 52% | 1024.3 hPa | - | - | - | - |
| 1777956532 | 25.56° C | 51% | 1024.3 hPa | - | - | - | - |
| 1777955632 | 25° C | 53% | 1024.4 hPa | - | - | - | - |
| 1777954732 | 25° C | 52% | 1024.4 hPa | - | - | - | - |
| 1777953832 | 25.56° C | 51% | 1024.4 hPa | - | - | - | - |
| 1777952932 | 25.56° C | 52% | 1024.5 hPa | - | - | - | - |
| 1777952032 | 25.56° C | 51% | 1024.3 hPa | - | - | - | - |
| 1777951132 | 25.56° C | 52% | 1024.4 hPa | - | - | - | - |
| 1777950232 | 25° C | 52% | 1024.4 hPa | - | - | - | - |
| 1777949332 | 25° C | 53% | 1024.4 hPa | - | - | - | - |
| 1777948432 | 25.56° C | 52% | 1024.3 hPa | - | - | - | - |
| 1777947532 | 25° C | 52% | 1024.3 hPa | - | - | - | - |
| 1777946632 | 25.56° C | 51% | 1024.2 hPa | - | - | - | - |
| 1777945732 | 25.56° C | 52% | 1024.4 hPa | - | - | - | - |
| 1777944832 | 25.56° C | 52% | 1024.2 hPa | - | - | - | - |
| 1777943932 | 25.56° C | 52% | 1024.1 hPa | - | - | - | - |
| 1777943032 | 26.11° C | 50% | 1024 hPa | - | - | - | - |
| 1777942132 | 26.11° C | 50% | 1023.9 hPa | - | - | - | - |
| 1777941232 | 26.11° C | 50% | 1023.7 hPa | - | - | - | - |
| 1777940332 | 26.11° C | 50% | 1023.6 hPa | - | - | - | - |
| 1777939432 | 26.67° C | 48% | 1023.4 hPa | - | - | - | - |
| 1777938532 | 26.67° C | 48% | 1023.3 hPa | - | - | - | - |
| 1777937632 | 27.22° C | 46% | 1023 hPa | - | - | - | - |
| 1777936732 | 27.78° C | 44% | 1022.7 hPa | - | - | - | - |
* Rain since midnight (hover to see other rain measurements)
** Current wind speed in m/s (hover to see current wind gust speed)